Content
SEND FEEDBACK

Daily
Averages
Monthly
Summary
United States of America

CANTON, SOUTH DAKOTA


Home > North America > United States > South Dakota
Elevation: 1323 feet     Latitude: 43 18N     Longitude: 096 40W

WEATHER
 
SELECT A DAY
Number of Records: 203,104;   Date Range: 1/1/95 - 8/12/14
 
SHARE

PRINT THIS DATA

[ ← Previous Day ]
WEATHER ALMANAC - FEBRUARY 6, 2013
[ Next Day → ]
[ °C ]   °F
Weather ElementAverageHighLow
Temperature33.7 °F42.1 °F (2:56 pm)26.1 °F (2:56 am)
Dewpoint28.6 °F34 °F (3:56 pm)23 °F (1:56 am)
Humidity82 %89 % (5:56 am)70 % (11:56 am)
Barometer29.93 in30.05 in (2:56 am)29.84 in (1:56 pm)
Wind Speed7 mph18.4 mph (11:56 am)
Wind Gust25.3 mph (11:56 am)
Weather ElementAverage
Visibility10 mi
Wind DirectionSSE (165.5 °)

Weather ElementTotal
Precipitation---
Heating Degree Days30.9 (Base 65)
Averaged from 22 records on February 6, 2013
WEATHER CONDITIONS BREAKOUT
WIND DIRECTION BREAKOUT
WEATHER BY HOUR - FEBRUARY 6, 2013
[ °C ]   °F
Local TimeTemperatureDewpointHumidityBarometerVisibilityWind DirectionWind SpeedGust SpeedPrecipitationEventsConditions
1:56 AM26.6 °F23.0 °F86 %30.01 in10.0 miSouth (170°)5.8 mphOvercast
2:56 AM26.1 °F23.0 °F88 %30.05 in10.0 miSSE (150°)5.8 mphOvercast
3:56 AM26.6 °F23.0 °F86 %29.96 in10.0 miSE (140°)9.2 mphOvercast
4:56 AM27.0 °F23.0 °F85 %30.01 in10.0 miSE (130°)8.1 mphOvercast
5:56 AM27.0 °F24.1 °F89 %29.98 in9.0 miESE (110°)6.9 mphOvercast
6:56 AM28.0 °F25.0 °F88 %29.96 in10.0 miSE (140°)10.4 mphMostly Cloudy
7:56 AM28.9 °F25.0 °F85 %29.94 in10.0 miSSE (150°)12.7 mphClear
8:56 AM30.9 °F26.1 °F82 %29.93 in10.0 miSSE (160°)10.4 mphClear
9:56 AM33.1 °F27.0 °F78 %29.92 in10.0 miSouth (180°)12.7 mphClear
11:56 AM39.0 °F30.0 °F70 %29.88 in10.0 miSSW (200°)18.4 mph25.3 mphClear
12:56 PM39.9 °F30.9 °F70 %29.85 in10.0 miSouth (190°)10.4 mphClear
1:56 PM41.0 °F32.0 °F70 %29.84 in10.0 miSSW (200°)8.1 mphClear
2:56 PM42.1 °F33.1 °F70 %29.85 in10.0 miSSW (210°)5.8 mphClear
3:56 PM42.1 °F34.0 °F73 %29.85 in10.0 miSSW (200°)3.5 mphClear
4:56 PM41.0 °F33.1 °F73 %29.86 in10.0 miCalmClear
5:56 PM37.0 °F32.0 °F82 %29.88 in10.0 miCalmClear
6:56 PM34.0 °F30.9 °F89 %29.91 in10.0 miCalmMostly Cloudy
7:56 PM34.0 °F30.9 °F89 %29.92 in10.0 miNW (310°)5.8 mphPartly Cloudy
8:56 PM35.1 °F32.0 °F89 %29.94 in10.0 miNW (310°)5.8 mphClear
9:56 PM35.1 °F30.9 °F85 %29.95 in10.0 miCalmOvercast
10:56 PM34.0 °F30.9 °F89 %29.96 in10.0 miNNW (330°)6.9 mphScattered Clouds
11:56 PM32.0 °F28.9 °F88 %29.97 in10.0 miNorth (360°)6.9 mphPartly Cloudy
Hourly data recorded from KFSD, located miles away from Canton, South Dakota







STORIES FROM OUR PARTNERS